Hlavní strana
METAR-TAF:

METAR-TAF

Letiště :

Hilton Head Airport

Hilton Head Island, Jižní Karolína, Spojené státy americké

zeměpisná šířka: 32-13N, zeměpisná délka: 080-42W, výška: 6 m

Aktuální stav počasí

Zpráva byla vytvořena před 23 minutami, v 08:15 UTC
vítr z různých směrů 8 kt
Teplota 25°C
Vlhkost vzduchu 89%
Tlak 1018 hPa
Viditelnost: 16.1 km
Skoro jasno ve výšce 3700 ft
Polojasno ve výšce 7000 ft

METAR: KHXD 290815Z AUTO VRB08KT 10SM FEW037 SCT070 25/23 A3006 RMK AO2

Čas: 04:38 (08:38 UTC)


TAF: chybějící

Stav a předpovědi počasí z více než 4 000 letišť (zprávy METAR a TAF).

Červené a žluté tečky na mapě představují dostupné meteorologické stanice.

Když kurzor umístíte na tečku, zobrazí se název stanice.

Pak kliknutím zobrazíte stav a předpověď počasí.

Chcete-li změnit mapu, kliknutím na zelené tlačítko se znaménkem +mapu přiblížíte, kliknutím na zelené tlačítko se znaménkem – mapu oddálíte a kliknutím na zelené šipky přejdete na sousední mapy.


METAR-TAF: